CP7 (DAVE) (43615 NORAD) Tracking and Keplerian Element Data

This shows tracking and keplerian element data for the satellite.

Feedback or suggestion? Click here.




ElementValue
Catalog43615
NameCP7 (DAVE)
Epoch Orbit3360
Epoch Day112.38635204
Epoch Year2019
RAAN340.0352
Inclination93.029
Eccentricity0.0017068
Argument of Perigee157.6334
Mean Anonmoly202.5667
Mean Motion15.37205394
Decay Rate1.999E-05
L11 43615U 18070C 19112.38635204 .00001999 00000-0 54893-4 0 9991
L22 43615 93.0290 340.0352 0017068 157.6334 202.5667 15.37205394 33601

Live tracking and technical data element details for CP7 (DAVE) (NORAD 43615). CP7 (DAVE) can be tracked NOW for your location showing map with azimuth and elevation plus other details from your city location.

Track the satellite on the map from your city or location and see movement details for azimuth, elevation, latitude, longitude, range, height, and movement on the map or in text.







IsCatalogInMostPopularTable: catalog: 43615, numindb: 100
Update: records affected: 1



GetName: 43615 CP7 (DAVE)

Hit Count: updated at: Tue, 23 Apr 2019 20:37:30 GMT